TimeCDT,TemperatureF,Dew PointF,Humidity,Sea Level PressureIn,VisibilityMPH,Wind Direction,Wind SpeedMPH,Gust SpeedMPH,PrecipitationIn,Events,Conditions,WindDirDegrees,DateUTC
12:55 AM,73.2,66.4,79,29.97,10.0,SSW,3.5,-,N/A,,Overcast,200,2011-10-27 05:55:00
12:58 AM,73.4,66.2,78,29.97,10.0,Calm,Calm,-,N/A,,Overcast,0,2011-10-27 05:58:00
1:23 AM,68.0,64.4,88,29.97,10.0,North,4.6,-,N/A,,Overcast,350,2011-10-27 06:23:00
1:55 AM,66.4,64.4,93,29.96,10.0,North,4.6,-,N/A,,Mostly Cloudy,360,2011-10-27 06:55:00
2:51 AM,64.4,64.4,100,29.95,10.0,North,4.6,-,N/A,,Overcast,360,2011-10-27 07:51:00
2:55 AM,64.2,63.9,99,29.95,10.0,North,4.6,-,N/A,,Overcast,360,2011-10-27 07:55:00
3:01 AM,64.4,64.4,100,29.95,10.0,North,4.6,-,N/A,,Overcast,360,2011-10-27 08:01:00
3:05 AM,64.4,64.4,100,29.95,10.0,North,3.5,-,N/A,,Overcast,10,2011-10-27 08:05:00
3:07 AM,64.4,64.4,100,29.95,10.0,North,4.6,-,N/A,,Overcast,360,2011-10-27 08:07:00
3:14 AM,64.4,64.4,100,29.94,10.0,North,4.6,-,N/A,,Overcast,360,2011-10-27 08:14:00
3:30 AM,66.2,66.2,100,29.94,10.0,North,4.6,-,N/A,,Overcast,360,2011-10-27 08:30:00
3:32 AM,66.2,66.2,100,29.94,10.0,North,4.6,-,N/A,,Overcast,350,2011-10-27 08:32:00
3:33 AM,66.2,66.2,100,29.94,10.0,North,4.6,-,N/A,,Overcast,350,2011-10-27 08:33:00
3:35 AM,66.2,66.2,100,29.94,10.0,North,5.8,-,N/A,,Overcast,350,2011-10-27 08:35:00
3:39 AM,66.2,64.4,94,29.94,10.0,North,4.6,-,N/A,,Overcast,10,2011-10-27 08:39:00
3:55 AM,65.1,64.0,96,29.94,10.0,North,6.9,-,N/A,,Mostly Cloudy,360,2011-10-27 08:55:00
4:08 AM,64.4,64.4,100,29.94,10.0,North,5.8,-,N/A,,Mostly Cloudy,360,2011-10-27 09:08:00
4:40 AM,66.2,64.4,94,29.93,10.0,North,5.8,-,N/A,,Light Drizzle,360,2011-10-27 09:40:00
4:42 AM,66.2,64.4,94,29.93,10.0,North,4.6,-,N/A,Rain,Light Rain,350,2011-10-27 09:42:00
4:48 AM,66.2,64.4,94,29.93,7.0,North,5.8,-,N/A,Rain,Light Rain,10,2011-10-27 09:48:00
4:50 AM,66.2,64.4,94,29.93,7.0,North,5.8,-,N/A,Rain,Light Rain,360,2011-10-27 09:50:00
4:51 AM,66.2,64.4,94,29.93,7.0,North,5.8,-,N/A,Rain,Light Rain,360,2011-10-27 09:51:00
4:55 AM,65.3,65.1,99,29.93,9.0,North,5.8,-,0.01,Rain,Light Rain,10,2011-10-27 09:55:00
5:03 AM,64.4,64.4,100,29.93,10.0,North,6.9,-,N/A,,Overcast,360,2011-10-27 10:03:00
5:11 AM,64.4,64.4,100,29.93,10.0,North,6.9,-,N/A,,Overcast,360,2011-10-27 10:11:00
5:55 AM,64.8,64.8,100,29.93,10.0,North,5.8,-,0.00,,Overcast,350,2011-10-27 10:55:00
6:03 AM,64.4,64.4,100,29.93,10.0,North,6.9,-,N/A,,Overcast,360,2011-10-27 11:03:00
6:46 AM,64.4,64.4,100,29.94,8.0,WNW,4.6,-,N/A,Rain,Light Rain,300,2011-10-27 11:46:00
6:47 AM,64.4,64.4,100,29.94,7.0,NW,3.5,-,N/A,Rain,Light Rain,320,2011-10-27 11:47:00
6:55 AM,65.3,64.9,99,29.94,6.0,North,4.6,-,0.02,Rain,Light Rain,350,2011-10-27 11:55:00
7:03 AM,64.4,64.4,100,29.94,10.0,North,5.8,-,N/A,,Light Drizzle,10,2011-10-27 12:03:00
7:10 AM,64.4,64.4,100,29.94,10.0,NNE,6.9,-,N/A,,Overcast,20,2011-10-27 12:10:00
7:11 AM,64.4,64.4,100,29.94,10.0,NNE,5.8,-,N/A,,Overcast,20,2011-10-27 12:11:00
7:50 AM,64.4,64.4,100,29.95,10.0,North,5.8,-,N/A,,Overcast,360,2011-10-27 12:50:00
7:53 AM,64.4,64.4,100,29.95,10.0,North,4.6,-,N/A,,Overcast,360,2011-10-27 12:53:00
7:55 AM,65.1,64.8,99,29.95,10.0,North,5.8,-,0.00,,Overcast,360,2011-10-27 12:55:00
7:58 AM,64.4,64.4,100,29.95,10.0,North,4.6,-,N/A,,Overcast,360,2011-10-27 12:58:00
8:28 AM,66.2,66.2,100,29.95,10.0,NNE,5.8,-,N/A,,Light Drizzle,30,2011-10-27 13:28:00
8:32 AM,66.2,66.2,100,29.95,10.0,NNE,4.6,-,N/A,,Mostly Cloudy,20,2011-10-27 13:32:00
8:55 AM,66.9,65.7,96,29.96,10.0,NNE,4.6,-,0.00,,Mostly Cloudy,30,2011-10-27 13:55:00
9:55 AM,72.9,64.8,76,29.96,10.0,NE,8.1,-,N/A,,Scattered Clouds,50,2011-10-27 14:55:00
10:55 AM,75.6,64.6,69,29.95,10.0,East,6.9,-,N/A,,Mostly Cloudy,80,2011-10-27 15:55:00
11:16 AM,75.2,62.6,65,29.95,10.0,East,4.6,-,N/A,Rain,Light Rain,80,2011-10-27 16:16:00
11:40 AM,78.8,64.4,61,29.94,10.0,SSE,6.9,-,N/A,,Clear,150,2011-10-27 16:40:00
11:55 AM,78.4,65.5,64,29.94,10.0,South,8.1,-,0.00,,Clear,170,2011-10-27 16:55:00
12:55 PM,78.1,66.2,67,29.92,10.0,SE,6.9,-,N/A,,Clear,140,2011-10-27 17:55:00
1:55 PM,76.8,67.5,73,29.90,10.0,South,8.1,-,N/A,,Partly Cloudy,170,2011-10-27 18:55:00
2:41 PM,77.0,68.0,74,29.89,10.0,South,11.5,-,N/A,,Light Drizzle,170,2011-10-27 19:41:00
2:51 PM,75.2,68.0,78,29.89,10.0,South,9.2,-,N/A,,Clear,190,2011-10-27 19:51:00
2:55 PM,76.1,68.7,78,29.89,10.0,South,4.6,-,0.00,,Clear,170,2011-10-27 19:55:00
3:55 PM,76.1,63.9,66,29.88,10.0,South,9.2,-,N/A,,Clear,190,2011-10-27 20:55:00
4:55 PM,74.7,65.3,73,29.89,10.0,South,6.9,-,N/A,,Clear,190,2011-10-27 21:55:00
5:23 PM,73.4,66.2,78,29.89,10.0,SW,5.8,-,N/A,,Light Drizzle,220,2011-10-27 22:23:00
5:33 PM,73.4,66.2,78,29.89,10.0,SW,4.6,-,N/A,,Clear,220,2011-10-27 22:33:00
5:55 PM,72.3,65.3,78,29.89,10.0,SW,4.6,-,0.00,,Clear,220,2011-10-27 22:55:00
6:55 PM,70.7,63.3,77,29.91,10.0,Variable,3.5,-,N/A,,Clear,0,2011-10-27 23:55:00
7:55 PM,69.8,62.8,78,29.92,10.0,Calm,Calm,-,N/A,,Clear,0,2011-10-28 00:55:00
8:55 PM,65.5,62.4,90,29.93,10.0,Calm,Calm,-,N/A,,Clear,0,2011-10-28 01:55:00
9:55 PM,61.9,61.5,99,29.94,10.0,North,3.5,-,N/A,,Clear,350,2011-10-28 02:55:00
10:55 PM,60.1,59.0,96,29.93,10.0,North,3.5,-,N/A,,Clear,360,2011-10-28 03:55:00
11:55 PM,59.2,59.0,99,29.91,10.0,Calm,Calm,-,N/A,,Partly Cloudy,0,2011-10-28 04:55:00